Year,Month,Day,Hour,Minute,Value (Times are PST for temperature in C)
2006,06,29,00,00,9.80
2006,06,29,00,01,9.70
2006,06,29,00,02,9.70
2006,06,29,00,03,9.70
2006,06,29,00,04,9.70
2006,06,29,00,05,9.70
2006,06,29,00,06,9.70
2006,06,29,00,07,9.70
2006,06,29,00,08,9.70
2006,06,29,00,09,9.70
2006,06,29,00,10,9.70
2006,06,29,00,11,9.70
2006,06,29,00,12,9.70
2006,06,29,00,13,9.70
2006,06,29,00,14,9.70
2006,06,29,00,15,9.70
2006,06,29,00,16,9.70
2006,06,29,00,17,9.70
2006,06,29,00,18,9.70
2006,06,29,00,19,9.70
2006,06,29,00,20,9.70
2006,06,29,00,21,9.70
2006,06,29,00,22,9.70
2006,06,29,00,23,9.70
2006,06,29,00,24,9.70
2006,06,29,00,25,9.70
2006,06,29,00,26,9.70
2006,06,29,00,27,9.60
2006,06,29,00,28,9.60
2006,06,29,00,29,9.60
2006,06,29,00,30,9.50
2006,06,29,00,31,9.50
2006,06,29,00,32,9.50
2006,06,29,00,33,9.50
2006,06,29,00,34,9.40
2006,06,29,00,35,9.40
2006,06,29,00,36,9.40
2006,06,29,00,37,9.40
2006,06,29,00,38,9.40
2006,06,29,00,39,9.30
2006,06,29,00,40,9.30
2006,06,29,00,41,9.30
2006,06,29,00,42,9.30
2006,06,29,00,43,9.20
2006,06,29,00,44,9.20
2006,06,29,00,45,9.20
2006,06,29,00,46,9.20
2006,06,29,00,47,9.20
2006,06,29,00,48,9.20
2006,06,29,00,49,9.20
2006,06,29,00,50,9.20
2006,06,29,00,51,9.10
2006,06,29,00,52,9.10
2006,06,29,00,53,9.10
2006,06,29,00,54,9.10
2006,06,29,00,55,9.10
2006,06,29,00,56,9.00
2006,06,29,00,57,9.00
2006,06,29,00,58,9.00
2006,06,29,00,59,9.00
2006,06,29,01,00,9.00
2006,06,29,01,01,8.90
2006,06,29,01,02,8.90
2006,06,29,01,03,8.90
2006,06,29,01,04,8.90
2006,06,29,01,05,8.90
2006,06,29,01,06,8.90
2006,06,29,01,07,8.80
2006,06,29,01,08,8.80
2006,06,29,01,09,8.80
2006,06,29,01,10,8.80
2006,06,29,01,11,8.70
2006,06,29,01,12,8.70
2006,06,29,01,13,8.70
2006,06,29,01,14,8.70
2006,06,29,01,15,8.80
2006,06,29,01,16,8.80
2006,06,29,01,17,8.80
2006,06,29,01,18,8.80
2006,06,29,01,19,8.80
2006,06,29,01,20,8.80
2006,06,29,01,21,8.80
2006,06,29,01,22,8.70
2006,06,29,01,23,8.70
2006,06,29,01,24,8.70
2006,06,29,01,25,8.70
2006,06,29,01,26,8.70
2006,06,29,01,27,8.70
2006,06,29,01,28,8.70
2006,06,29,01,29,8.70
2006,06,29,01,30,8.70
2006,06,29,01,31,8.70
2006,06,29,01,32,8.70
2006,06,29,01,33,8.70
2006,06,29,01,34,8.70
2006,06,29,01,35,8.70
2006,06,29,01,36,8.70
2006,06,29,01,37,8.70
2006,06,29,01,38,8.70
2006,06,29,01,39,8.80
2006,06,29,01,40,8.80
2006,06,29,01,41,8.80
2006,06,29,01,42,8.90
2006,06,29,01,43,8.90
2006,06,29,01,44,8.90
2006,06,29,01,45,9.00
2006,06,29,01,46,9.00
2006,06,29,01,47,9.00
2006,06,29,01,48,9.00
2006,06,29,01,49,9.10
2006,06,29,01,50,9.00
2006,06,29,01,51,9.00
2006,06,29,01,52,9.00
2006,06,29,01,53,8.90
2006,06,29,01,54,8.90
2006,06,29,01,55,8.90
2006,06,29,01,56,8.80
2006,06,29,01,57,8.80
2006,06,29,01,58,8.80
2006,06,29,01,59,8.70
2006,06,29,02,00,8.70
2006,06,29,02,01,8.70
2006,06,29,02,02,8.70
2006,06,29,02,03,8.70
2006,06,29,02,04,8.70
2006,06,29,02,05,8.70
2006,06,29,02,06,8.70
2006,06,29,02,07,8.70
2006,06,29,02,08,8.70
2006,06,29,02,09,8.70
2006,06,29,02,10,8.60
2006,06,29,02,11,8.60
2006,06,29,02,12,8.60
2006,06,29,02,13,8.60
2006,06,29,02,14,8.50
2006,06,29,02,15,8.50
2006,06,29,02,16,8.50
2006,06,29,02,17,8.40
2006,06,29,02,18,8.40
2006,06,29,02,19,8.30
2006,06,29,02,20,8.30
2006,06,29,02,21,8.30
2006,06,29,02,22,8.30
2006,06,29,02,23,8.30
2006,06,29,02,24,8.30
2006,06,29,02,25,8.20
2006,06,29,02,26,8.20
2006,06,29,02,27,8.20
2006,06,29,02,28,8.20
2006,06,29,02,29,8.20
2006,06,29,02,30,8.20
2006,06,29,02,31,8.20
2006,06,29,02,32,8.20
2006,06,29,02,33,8.20
2006,06,29,02,34,8.20
2006,06,29,02,35,8.20
2006,06,29,02,36,8.10
2006,06,29,02,37,8.10
2006,06,29,02,38,8.20
2006,06,29,02,39,8.20
2006,06,29,02,40,8.20
2006,06,29,02,41,8.20
2006,06,29,02,42,8.20
2006,06,29,02,43,8.20
2006,06,29,02,44,8.20
2006,06,29,02,45,8.20
2006,06,29,02,46,8.30
2006,06,29,02,47,8.30
2006,06,29,02,48,8.40
2006,06,29,02,49,8.40
2006,06,29,02,50,8.40
2006,06,29,02,51,8.40
2006,06,29,02,52,8.40
2006,06,29,02,53,8.40
2006,06,29,02,54,8.40
2006,06,29,02,55,8.40
2006,06,29,02,56,8.40
2006,06,29,02,57,8.50
2006,06,29,02,58,8.50
2006,06,29,02,59,8.60
2006,06,29,03,00,8.60
2006,06,29,03,01,8.70
2006,06,29,03,02,8.70
2006,06,29,03,03,8.70
2006,06,29,03,04,8.70
2006,06,29,03,05,8.70
2006,06,29,03,06,8.70
2006,06,29,03,07,8.90
2006,06,29,03,08,8.90
2006,06,29,03,09,9.00
2006,06,29,03,10,9.20
2006,06,29,03,11,9.20
2006,06,29,03,12,9.40
2006,06,29,03,13,9.40
2006,06,29,03,14,9.50
2006,06,29,03,15,9.60
2006,06,29,03,16,9.60
2006,06,29,03,17,9.60
2006,06,29,03,18,9.50
2006,06,29,03,19,9.50
2006,06,29,03,20,9.40
2006,06,29,03,21,9.40
2006,06,29,03,22,9.30
2006,06,29,03,23,9.20
2006,06,29,03,24,9.20
2006,06,29,03,25,9.20
2006,06,29,03,26,9.10
2006,06,29,03,27,9.10
2006,06,29,03,28,9.00
2006,06,29,03,29,9.00
2006,06,29,03,30,8.90
2006,06,29,03,31,8.80
2006,06,29,03,32,8.80
2006,06,29,03,33,8.70
2006,06,29,03,34,8.70
2006,06,29,03,35,8.70
2006,06,29,03,36,8.70
2006,06,29,03,37,8.70
2006,06,29,03,38,8.80
2006,06,29,03,39,8.80
2006,06,29,03,40,8.80
2006,06,29,03,41,8.80
2006,06,29,03,42,8.80
2006,06,29,03,43,8.70
2006,06,29,03,44,8.70
2006,06,29,03,45,8.70
2006,06,29,03,46,8.70
2006,06,29,03,47,8.70
2006,06,29,03,48,8.70
2006,06,29,03,49,8.70
2006,06,29,03,50,8.70
2006,06,29,03,51,8.60
2006,06,29,03,52,8.60
2006,06,29,03,53,8.60
2006,06,29,03,54,8.60
2006,06,29,03,55,8.60
2006,06,29,03,56,8.50
2006,06,29,03,57,8.50
2006,06,29,03,58,8.50
2006,06,29,03,59,8.40
2006,06,29,04,00,8.40
2006,06,29,04,01,8.30
2006,06,29,04,02,8.30
2006,06,29,04,03,8.20
2006,06,29,04,04,8.20
2006,06,29,04,05,8.20
2006,06,29,04,06,8.20
2006,06,29,04,07,8.10
2006,06,29,04,08,8.10
2006,06,29,04,09,8.10
2006,06,29,04,10,8.00
2006,06,29,04,11,8.00
2006,06,29,04,12,8.00
2006,06,29,04,13,8.00
2006,06,29,04,14,8.00
2006,06,29,04,15,7.90
2006,06,29,04,16,7.90
2006,06,29,04,17,7.90
2006,06,29,04,18,7.90
2006,06,29,04,19,7.80
2006,06,29,04,20,7.80
2006,06,29,04,21,7.80
2006,06,29,04,22,7.80
2006,06,29,04,23,7.80
2006,06,29,04,24,7.80
2006,06,29,04,25,7.80
2006,06,29,04,26,7.80
2006,06,29,04,27,7.80
2006,06,29,04,28,7.80
2006,06,29,04,29,7.80
2006,06,29,04,30,7.80
2006,06,29,04,31,7.80
2006,06,29,04,32,7.80
2006,06,29,04,33,7.80
2006,06,29,04,34,7.70
2006,06,29,04,35,7.70
2006,06,29,04,36,7.70
2006,06,29,04,37,7.70
2006,06,29,04,38,7.70
2006,06,29,04,39,7.70
2006,06,29,04,40,7.70
2006,06,29,04,41,7.70
2006,06,29,04,42,7.70
2006,06,29,04,43,7.70
2006,06,29,04,44,7.70
2006,06,29,04,45,7.70
2006,06,29,04,46,7.70
2006,06,29,04,47,7.70
2006,06,29,04,48,7.70
2006,06,29,04,49,7.70
2006,06,29,04,50,7.70
2006,06,29,04,51,7.70
2006,06,29,04,52,7.60
2006,06,29,04,53,7.60
2006,06,29,04,54,7.60
2006,06,29,04,55,7.60
2006,06,29,04,56,7.60
2006,06,29,04,57,7.60
2006,06,29,04,58,7.60
2006,06,29,04,59,7.60
2006,06,29,05,00,7.60
2006,06,29,05,01,7.60
2006,06,29,05,02,7.60
2006,06,29,05,03,7.60
2006,06,29,05,04,7.60
2006,06,29,05,05,7.60
2006,06,29,05,06,7.50
2006,06,29,05,07,7.50
2006,06,29,05,08,7.50
2006,06,29,05,09,7.50
2006,06,29,05,10,7.50
2006,06,29,05,11,7.50
2006,06,29,05,12,7.50
2006,06,29,05,13,7.50
2006,06,29,05,14,7.50
2006,06,29,05,15,7.50
2006,06,29,05,16,7.50
2006,06,29,05,17,7.50
2006,06,29,05,18,7.50
2006,06,29,05,19,7.50
2006,06,29,05,20,7.60
2006,06,29,05,21,7.70
2006,06,29,05,22,7.80
2006,06,29,05,23,7.80
2006,06,29,05,24,7.80
2006,06,29,05,25,7.90
2006,06,29,05,26,7.90
2006,06,29,05,27,7.80
2006,06,29,05,28,7.80
2006,06,29,05,29,7.80
2006,06,29,05,30,7.80
2006,06,29,05,31,7.80
2006,06,29,05,32,7.80
2006,06,29,05,33,7.70
2006,06,29,05,34,7.70
2006,06,29,05,35,7.70
2006,06,29,05,36,7.70
2006,06,29,05,37,7.80
2006,06,29,05,38,7.80
2006,06,29,05,39,7.80
2006,06,29,05,40,7.80
2006,06,29,05,41,7.80
2006,06,29,05,42,7.80
2006,06,29,05,43,7.90
2006,06,29,05,44,8.00
2006,06,29,05,45,8.00
2006,06,29,05,46,8.00
2006,06,29,05,47,8.10
2006,06,29,05,48,8.10
2006,06,29,05,49,8.10
2006,06,29,05,50,8.20
2006,06,29,05,51,8.20
2006,06,29,05,52,8.20
2006,06,29,05,53,8.30
2006,06,29,05,54,8.40
2006,06,29,05,55,8.40
2006,06,29,05,56,8.40
2006,06,29,05,57,8.50
2006,06,29,05,58,8.50
2006,06,29,05,59,8.50
2006,06,29,06,00,8.50
2006,06,29,06,01,8.50
2006,06,29,06,02,8.60
2006,06,29,06,03,8.60
2006,06,29,06,04,8.70
2006,06,29,06,05,8.70
2006,06,29,06,06,8.70
2006,06,29,06,07,8.70
2006,06,29,06,08,8.70
2006,06,29,06,09,8.70
2006,06,29,06,10,8.70
2006,06,29,06,11,8.70
2006,06,29,06,12,8.80
2006,06,29,06,13,8.90
2006,06,29,06,14,9.00
2006,06,29,06,15,9.20
2006,06,29,06,16,9.20
2006,06,29,06,17,9.20
2006,06,29,06,18,9.30
2006,06,29,06,19,9.40
2006,06,29,06,20,9.40
2006,06,29,06,21,9.50
2006,06,29,06,22,9.60
2006,06,29,06,23,9.70
2006,06,29,06,24,9.70
2006,06,29,06,25,9.80
2006,06,29,06,26,10.00
2006,06,29,06,27,10.10
2006,06,29,06,28,10.20
2006,06,29,06,29,10.30
2006,06,29,06,30,10.50
2006,06,29,06,31,10.60
2006,06,29,06,32,10.70
2006,06,29,06,33,10.80
2006,06,29,06,34,10.90
2006,06,29,06,35,11.00
2006,06,29,06,36,11.10
2006,06,29,06,37,11.10
2006,06,29,06,38,11.10
2006,06,29,06,39,11.10
2006,06,29,06,40,11.20
2006,06,29,06,41,11.20
2006,06,29,06,42,11.20
2006,06,29,06,43,11.30
2006,06,29,06,44,11.30
2006,06,29,06,45,11.40
2006,06,29,06,46,11.40
2006,06,29,06,47,11.50
2006,06,29,06,48,11.60
2006,06,29,06,49,11.60
2006,06,29,06,50,11.70
2006,06,29,06,51,11.70
2006,06,29,06,52,11.70
2006,06,29,06,53,11.80
2006,06,29,06,54,11.80
2006,06,29,06,55,11.80
2006,06,29,06,56,11.80
2006,06,29,06,57,11.80
2006,06,29,06,58,11.80
2006,06,29,06,59,11.90
2006,06,29,07,00,12.00
2006,06,29,07,01,12.00
2006,06,29,07,02,12.10
2006,06,29,07,03,12.10
2006,06,29,07,04,12.20
2006,06,29,07,05,12.30
2006,06,29,07,06,12.30
2006,06,29,07,07,12.30
2006,06,29,07,08,12.30
2006,06,29,07,09,12.30
2006,06,29,07,10,12.30
2006,06,29,07,11,12.30
2006,06,29,07,12,12.30
2006,06,29,07,13,12.30
2006,06,29,07,14,12.30
2006,06,29,07,15,12.30
2006,06,29,07,16,12.40
2006,06,29,07,17,12.40
2006,06,29,07,18,12.50
2006,06,29,07,19,12.50
2006,06,29,07,20,12.50
2006,06,29,07,21,12.60
2006,06,29,07,22,12.60
2006,06,29,07,23,12.70
2006,06,29,07,24,12.80
2006,06,29,07,25,12.80
2006,06,29,07,26,12.90
2006,06,29,07,27,13.00
2006,06,29,07,28,13.10
2006,06,29,07,29,13.20
2006,06,29,07,30,13.30
2006,06,29,07,31,13.30
2006,06,29,07,32,13.40
2006,06,29,07,33,13.50
2006,06,29,07,34,13.60
2006,06,29,07,35,13.70
2006,06,29,07,36,13.70
2006,06,29,07,37,13.70
2006,06,29,07,38,13.80
2006,06,29,07,39,13.90
2006,06,29,07,40,13.90
2006,06,29,07,41,14.00
2006,06,29,07,42,14.00
2006,06,29,07,43,14.10
2006,06,29,07,44,14.10
2006,06,29,07,45,14.20
2006,06,29,07,46,14.20
2006,06,29,07,47,14.30
2006,06,29,07,48,14.40
2006,06,29,07,49,14.60
2006,06,29,07,50,14.70
2006,06,29,07,51,14.90
2006,06,29,07,52,15.00
2006,06,29,07,53,15.10
2006,06,29,07,54,15.20
2006,06,29,07,55,15.30
2006,06,29,07,56,15.30
2006,06,29,07,57,15.20
2006,06,29,07,58,15.20
2006,06,29,07,59,15.10
2006,06,29,08,00,15.10
2006,06,29,08,01,15.10
2006,06,29,08,02,15.00
2006,06,29,08,03,15.00
2006,06,29,08,04,15.00
2006,06,29,08,05,15.00
2006,06,29,08,06,15.00
2006,06,29,08,07,15.10
2006,06,29,08,08,15.10
2006,06,29,08,09,15.20
2006,06,29,08,10,15.30
2006,06,29,08,11,15.40
2006,06,29,08,12,15.50
2006,06,29,08,13,15.50
2006,06,29,08,14,15.60
2006,06,29,08,15,15.60
2006,06,29,08,16,15.70
2006,06,29,08,17,15.80
2006,06,29,08,18,15.80
2006,06,29,08,19,15.90
2006,06,29,08,20,16.00
2006,06,29,08,21,16.10
2006,06,29,08,22,16.20
2006,06,29,08,23,16.30
2006,06,29,08,24,16.40
2006,06,29,08,25,16.40
2006,06,29,08,26,16.40
2006,06,29,08,27,16.50
2006,06,29,08,28,16.50
2006,06,29,08,29,16.40
2006,06,29,08,30,16.40
2006,06,29,08,31,16.40
2006,06,29,08,32,16.50
2006,06,29,08,33,16.60
2006,06,29,08,34,16.60
2006,06,29,08,35,16.60
2006,06,29,08,36,16.60
2006,06,29,08,37,16.70
2006,06,29,08,38,16.70
2006,06,29,08,39,16.80
2006,06,29,08,40,16.90
2006,06,29,08,41,16.90
2006,06,29,08,42,16.90
2006,06,29,08,43,16.90
2006,06,29,08,44,16.90
2006,06,29,08,45,16.90
2006,06,29,08,46,16.90
2006,06,29,08,47,17.00
2006,06,29,08,48,17.10
2006,06,29,08,49,17.10
2006,06,29,08,50,17.10
2006,06,29,08,51,17.10
2006,06,29,08,52,17.10
2006,06,29,08,53,17.10
2006,06,29,08,54,17.10
2006,06,29,08,55,17.10
2006,06,29,08,56,17.30
2006,06,29,08,57,17.30
2006,06,29,08,58,17.40
2006,06,29,08,59,17.30
2006,06,29,09,00,17.30
2006,06,29,09,01,17.30
2006,06,29,09,02,17.30
2006,06,29,09,03,17.30
2006,06,29,09,04,17.20
2006,06,29,09,05,17.10
2006,06,29,09,06,17.10
2006,06,29,09,07,17.10
2006,06,29,09,08,17.20
2006,06,29,09,09,17.10
2006,06,29,09,10,17.00
2006,06,29,09,11,16.90
2006,06,29,09,12,16.90
2006,06,29,09,13,16.80
2006,06,29,09,14,16.70
2006,06,29,09,15,16.50
2006,06,29,09,16,16.40
2006,06,29,09,17,16.40
2006,06,29,09,18,16.40
2006,06,29,09,19,16.30
2006,06,29,09,20,16.30
2006,06,29,09,21,16.30
2006,06,29,09,22,16.40
2006,06,29,09,23,16.40
2006,06,29,09,24,16.40
2006,06,29,09,25,16.60
2006,06,29,09,26,16.40
2006,06,29,09,27,16.40
2006,06,29,09,28,16.40
2006,06,29,09,29,16.40
2006,06,29,09,30,16.70
2006,06,29,09,31,16.90
2006,06,29,09,32,17.00
2006,06,29,09,33,17.00
2006,06,29,09,34,17.00
2006,06,29,09,35,16.90
2006,06,29,09,36,16.90
2006,06,29,09,37,17.00
2006,06,29,09,38,17.10
2006,06,29,09,39,17.20
2006,06,29,09,40,17.30
2006,06,29,09,41,17.40
2006,06,29,09,42,17.50
2006,06,29,09,43,17.60
2006,06,29,09,44,17.80
2006,06,29,09,45,18.00
2006,06,29,09,46,18.00
2006,06,29,09,47,17.90
2006,06,29,09,48,17.80
2006,06,29,09,49,17.80
2006,06,29,09,50,17.90
2006,06,29,09,51,18.00
2006,06,29,09,52,18.10
2006,06,29,09,53,18.20
2006,06,29,09,54,18.20
2006,06,29,09,55,18.20
2006,06,29,09,56,18.20
2006,06,29,09,57,18.00
2006,06,29,09,58,17.90
2006,06,29,09,59,17.90
2006,06,29,10,00,18.10
2006,06,29,10,01,18.10
2006,06,29,10,02,18.00
2006,06,29,10,03,18.10
2006,06,29,10,04,17.90
2006,06,29,10,05,17.90
2006,06,29,10,06,17.80
2006,06,29,10,07,17.80
2006,06,29,10,08,17.70
2006,06,29,10,09,17.90
2006,06,29,10,10,17.90
2006,06,29,10,11,18.00
2006,06,29,10,12,18.10
2006,06,29,10,13,18.10
2006,06,29,10,14,17.90
2006,06,29,10,15,17.90
2006,06,29,10,16,17.90
2006,06,29,10,17,17.90
2006,06,29,10,18,17.90
2006,06,29,10,19,17.80
2006,06,29,10,20,17.80
2006,06,29,10,21,17.80
2006,06,29,10,22,17.70
2006,06,29,10,23,17.60
2006,06,29,10,24,17.50
2006,06,29,10,25,17.60
2006,06,29,10,26,17.70
2006,06,29,10,27,17.80
2006,06,29,10,28,17.90
2006,06,29,10,29,17.90
2006,06,29,10,30,17.90
2006,06,29,10,31,17.80
2006,06,29,10,32,17.90
2006,06,29,10,33,18.00
2006,06,29,10,34,18.20
2006,06,29,10,35,18.10
2006,06,29,10,36,18.10
2006,06,29,10,37,18.20
2006,06,29,10,38,18.30
2006,06,29,10,39,18.40
2006,06,29,10,40,18.40
2006,06,29,10,41,18.40
2006,06,29,10,42,18.40
2006,06,29,10,43,18.30
2006,06,29,10,44,18.30
2006,06,29,10,45,18.30
2006,06,29,10,46,18.30
2006,06,29,10,47,18.40
2006,06,29,10,48,18.40
2006,06,29,10,49,18.40
2006,06,29,10,50,18.30
2006,06,29,10,51,18.30
2006,06,29,10,52,18.30
2006,06,29,10,53,18.20
2006,06,29,10,54,18.20
2006,06,29,10,55,18.30
2006,06,29,10,56,18.40
2006,06,29,10,57,18.40
2006,06,29,10,58,18.40
2006,06,29,10,59,18.40
2006,06,29,11,00,18.40
2006,06,29,11,01,18.40
2006,06,29,11,02,18.30
2006,06,29,11,03,18.10
2006,06,29,11,04,18.10
2006,06,29,11,05,18.10
2006,06,29,11,06,18.20
2006,06,29,11,07,18.30
2006,06,29,11,08,18.30
2006,06,29,11,09,18.40
2006,06,29,11,10,18.40
2006,06,29,11,11,18.40
2006,06,29,11,12,18.40
2006,06,29,11,13,18.40
2006,06,29,11,14,18.40
2006,06,29,11,15,18.50
2006,06,29,11,16,18.60
2006,06,29,11,17,18.60
2006,06,29,11,18,18.60
2006,06,29,11,19,18.70
2006,06,29,11,20,18.70
2006,06,29,11,21,18.80
2006,06,29,11,22,18.80
2006,06,29,11,23,18.70
2006,06,29,11,24,18.60
2006,06,29,11,25,18.60
2006,06,29,11,26,18.60
2006,06,29,11,27,18.60
2006,06,29,11,28,18.50
2006,06,29,11,29,18.30
2006,06,29,11,30,18.30
2006,06,29,11,31,18.40
2006,06,29,11,32,18.60
2006,06,29,11,33,18.60
2006,06,29,11,34,18.70
2006,06,29,11,35,19.00
2006,06,29,11,36,19.10
2006,06,29,11,37,19.30
2006,06,29,11,38,19.40
2006,06,29,11,39,19.40
2006,06,29,11,40,19.40
2006,06,29,11,41,19.50
2006,06,29,11,42,19.70
2006,06,29,11,43,19.90
2006,06,29,11,44,20.10
2006,06,29,11,45,20.30
2006,06,29,11,46,20.40
2006,06,29,11,47,20.30
2006,06,29,11,48,20.30
2006,06,29,11,49,20.40
2006,06,29,11,50,20.50
2006,06,29,11,51,20.70
2006,06,29,11,52,20.80
2006,06,29,11,53,20.80
2006,06,29,11,54,20.80
2006,06,29,11,55,20.90
2006,06,29,11,56,20.90
2006,06,29,11,57,20.60
2006,06,29,11,58,20.60
2006,06,29,11,59,20.60
2006,06,29,12,00,20.50
2006,06,29,12,01,20.40
2006,06,29,12,02,20.40
2006,06,29,12,03,20.40
2006,06,29,12,04,20.50
2006,06,29,12,05,20.50
2006,06,29,12,06,20.60
2006,06,29,12,07,20.60
2006,06,29,12,08,20.60
2006,06,29,12,09,20.60
2006,06,29,12,10,20.60
2006,06,29,12,11,20.70
2006,06,29,12,12,20.70
2006,06,29,12,13,20.80
2006,06,29,12,14,20.90
2006,06,29,12,15,21.10
2006,06,29,12,16,21.30
2006,06,29,12,17,21.20
2006,06,29,12,18,21.10
2006,06,29,12,19,21.20
2006,06,29,12,20,21.20
2006,06,29,12,21,21.20
2006,06,29,12,22,21.20
2006,06,29,12,23,21.30
2006,06,29,12,24,21.30
2006,06,29,12,25,21.40
2006,06,29,12,26,21.40
2006,06,29,12,27,21.30
2006,06,29,12,28,21.30
2006,06,29,12,29,21.40
2006,06,29,12,30,21.40
2006,06,29,12,31,21.20
2006,06,29,12,32,21.00
2006,06,29,12,33,20.90
2006,06,29,12,34,21.00
2006,06,29,12,35,21.00
2006,06,29,12,36,20.90
2006,06,29,12,37,20.90
2006,06,29,12,38,21.00
2006,06,29,12,39,21.00
2006,06,29,12,40,21.10
2006,06,29,12,41,21.10
2006,06,29,12,42,21.10
2006,06,29,12,43,21.20
2006,06,29,12,44,21.10
2006,06,29,12,45,21.00
2006,06,29,12,46,21.00
2006,06,29,12,47,21.00
2006,06,29,12,48,20.80
2006,06,29,12,49,20.80
2006,06,29,12,50,20.80
2006,06,29,12,51,21.00
2006,06,29,12,52,21.10
2006,06,29,12,53,21.20
2006,06,29,12,54,21.10
2006,06,29,12,55,21.10
2006,06,29,12,56,21.10
2006,06,29,12,57,21.10
2006,06,29,12,58,21.20
2006,06,29,12,59,21.20
2006,06,29,13,00,21.20
2006,06,29,13,01,21.30
2006,06,29,13,02,21.30
2006,06,29,13,03,21.40
2006,06,29,13,04,21.40
2006,06,29,13,05,21.40
2006,06,29,13,06,21.40
2006,06,29,13,07,21.40
2006,06,29,13,08,21.40
2006,06,29,13,09,21.40
2006,06,29,13,10,21.40
2006,06,29,13,11,21.40
2006,06,29,13,12,21.40
2006,06,29,13,13,21.40
2006,06,29,13,14,21.40
2006,06,29,13,15,21.50
2006,06,29,13,16,21.40
2006,06,29,13,17,21.40
2006,06,29,13,18,21.40
2006,06,29,13,19,21.30
2006,06,29,13,20,21.30
2006,06,29,13,21,21.30
2006,06,29,13,22,21.30
2006,06,29,13,23,21.30
2006,06,29,13,24,21.30
2006,06,29,13,25,21.30
2006,06,29,13,26,21.30
2006,06,29,13,27,21.30
2006,06,29,13,28,21.30
2006,06,29,13,29,21.30
2006,06,29,13,30,21.30
2006,06,29,13,31,21.00
2006,06,29,13,32,21.00
2006,06,29,13,33,21.20
2006,06,29,13,34,21.20
2006,06,29,13,35,21.20
2006,06,29,13,36,21.30
2006,06,29,13,37,21.10
2006,06,29,13,38,21.00
2006,06,29,13,39,21.10
2006,06,29,13,40,21.10
2006,06,29,13,41,21.00
2006,06,29,13,42,20.80
2006,06,29,13,43,20.80
2006,06,29,13,44,20.80
2006,06,29,13,45,20.80
2006,06,29,13,46,20.80
2006,06,29,13,47,20.90
2006,06,29,13,48,21.00
2006,06,29,13,49,21.00
2006,06,29,13,50,20.80
2006,06,29,13,51,20.70
2006,06,29,13,52,20.70
2006,06,29,13,53,20.70
2006,06,29,13,54,20.70
2006,06,29,13,55,20.60
2006,06,29,13,56,20.70
2006,06,29,13,57,20.80
2006,06,29,13,58,21.00
2006,06,29,13,59,21.10
2006,06,29,14,00,21.20
2006,06,29,14,01,21.10
2006,06,29,14,02,21.00
2006,06,29,14,03,21.00
2006,06,29,14,04,21.00
2006,06,29,14,05,21.10
2006,06,29,14,06,21.00
2006,06,29,14,07,21.00
2006,06,29,14,08,21.00
2006,06,29,14,09,21.10
2006,06,29,14,10,21.30
2006,06,29,14,11,21.30
2006,06,29,14,12,21.30
2006,06,29,14,13,21.40
2006,06,29,14,14,21.50
2006,06,29,14,15,21.70
2006,06,29,14,16,21.80
2006,06,29,14,17,21.80
2006,06,29,14,18,21.90
2006,06,29,14,19,22.00
2006,06,29,14,20,22.00
2006,06,29,14,21,22.00
2006,06,29,14,22,21.90
2006,06,29,14,23,21.80
2006,06,29,14,24,21.70
2006,06,29,14,25,21.80
2006,06,29,14,26,21.80
2006,06,29,14,27,21.80
2006,06,29,14,28,21.80
2006,06,29,14,29,21.80
2006,06,29,14,30,21.60
2006,06,29,14,31,21.70
2006,06,29,14,32,21.80
2006,06,29,14,33,21.90
2006,06,29,14,34,21.90
2006,06,29,14,35,21.90
2006,06,29,14,36,22.00
2006,06,29,14,37,22.10
2006,06,29,14,38,22.00
2006,06,29,14,39,22.00
2006,06,29,14,40,22.00
2006,06,29,14,41,22.00
2006,06,29,14,42,22.00
2006,06,29,14,43,22.10
2006,06,29,14,44,22.00
2006,06,29,14,45,22.00
2006,06,29,14,46,22.00
2006,06,29,14,47,21.90
2006,06,29,14,48,21.80
2006,06,29,14,49,21.80
2006,06,29,14,50,21.80
2006,06,29,14,51,21.90
2006,06,29,14,52,22.00
2006,06,29,14,53,22.20
2006,06,29,14,54,22.30
2006,06,29,14,55,22.30
2006,06,29,14,56,22.30
2006,06,29,14,57,22.30
2006,06,29,14,58,22.40
2006,06,29,14,59,22.60
2006,06,29,15,00,22.70
2006,06,29,15,01,22.70
2006,06,29,15,02,22.70
2006,06,29,15,03,22.80
2006,06,29,15,04,22.90
2006,06,29,15,05,22.90
2006,06,29,15,06,22.90
2006,06,29,15,07,22.90
2006,06,29,15,08,22.90
2006,06,29,15,09,22.90
2006,06,29,15,10,23.00
2006,06,29,15,11,23.20
2006,06,29,15,12,23.30
2006,06,29,15,13,23.50
2006,06,29,15,14,23.60
2006,06,29,15,15,23.50
2006,06,29,15,16,23.40
2006,06,29,15,17,23.40
2006,06,29,15,18,23.30
2006,06,29,15,19,23.30
2006,06,29,15,20,23.10
2006,06,29,15,21,22.90
2006,06,29,15,22,22.70
2006,06,29,15,23,22.40
2006,06,29,15,24,22.30
2006,06,29,15,25,22.00
2006,06,29,15,26,21.70
2006,06,29,15,27,21.60
2006,06,29,15,28,21.60
2006,06,29,15,29,21.70
2006,06,29,15,30,21.80
2006,06,29,15,31,21.80
2006,06,29,15,32,21.90
2006,06,29,15,33,22.00
2006,06,29,15,34,22.10
2006,06,29,15,35,22.30
2006,06,29,15,36,22.60
2006,06,29,15,37,22.60
2006,06,29,15,38,22.50
2006,06,29,15,39,22.40
2006,06,29,15,40,22.20
2006,06,29,15,41,22.10
2006,06,29,15,42,22.00
2006,06,29,15,43,22.00
2006,06,29,15,44,21.90
2006,06,29,15,45,22.00
2006,06,29,15,46,22.00
2006,06,29,15,47,22.20
2006,06,29,15,48,22.50
2006,06,29,15,49,22.70
2006,06,29,15,50,22.80
2006,06,29,15,51,22.90
2006,06,29,15,52,23.20
2006,06,29,15,53,23.30
2006,06,29,15,54,23.30
2006,06,29,15,55,23.30
2006,06,29,15,56,23.20
2006,06,29,15,57,23.20
2006,06,29,15,58,23.20
2006,06,29,15,59,23.10
2006,06,29,16,00,23.00
2006,06,29,16,01,22.90
2006,06,29,16,02,23.00
2006,06,29,16,03,23.00
2006,06,29,16,04,22.90
2006,06,29,16,05,22.90
2006,06,29,16,06,22.80
2006,06,29,16,07,22.80
2006,06,29,16,08,22.80
2006,06,29,16,09,22.80
2006,06,29,16,10,22.70
2006,06,29,16,11,22.70
2006,06,29,16,12,22.50
2006,06,29,16,13,22.30
2006,06,29,16,14,22.20
2006,06,29,16,15,22.10
2006,06,29,16,16,22.10
2006,06,29,16,17,22.00
2006,06,29,16,18,21.80
2006,06,29,16,19,21.70
2006,06,29,16,20,21.60
2006,06,29,16,21,21.60
2006,06,29,16,22,21.60
2006,06,29,16,23,21.70
2006,06,29,16,24,21.60
2006,06,29,16,25,21.50
2006,06,29,16,26,21.60
2006,06,29,16,27,21.50
2006,06,29,16,28,21.30
2006,06,29,16,29,20.90
2006,06,29,16,30,20.60
2006,06,29,16,31,20.40
2006,06,29,16,32,20.40
2006,06,29,16,33,20.30
2006,06,29,16,34,20.20
2006,06,29,16,35,20.20
2006,06,29,16,36,20.20
2006,06,29,16,37,20.10
2006,06,29,16,38,20.20
2006,06,29,16,39,20.40
2006,06,29,16,40,20.50
2006,06,29,16,41,20.40
2006,06,29,16,42,20.10
2006,06,29,16,43,19.70
2006,06,29,16,44,19.40
2006,06,29,16,45,19.00
2006,06,29,16,46,18.90
2006,06,29,16,47,18.90
2006,06,29,16,48,18.80
2006,06,29,16,49,18.80
2006,06,29,16,50,18.70
2006,06,29,16,51,18.80
2006,06,29,16,52,18.70
2006,06,29,16,53,18.50
2006,06,29,16,54,18.40
2006,06,29,16,55,18.30
2006,06,29,16,56,18.20
2006,06,29,16,57,18.30
2006,06,29,16,58,18.50
2006,06,29,16,59,18.60
2006,06,29,17,00,18.70
2006,06,29,17,01,18.90
2006,06,29,17,02,18.90
2006,06,29,17,03,18.90
2006,06,29,17,04,18.90
2006,06,29,17,05,19.00
2006,06,29,17,06,19.10
2006,06,29,17,07,19.10
2006,06,29,17,08,19.10
2006,06,29,17,09,19.10
2006,06,29,17,10,19.10
2006,06,29,17,11,19.10
2006,06,29,17,12,19.10
2006,06,29,17,13,19.20
2006,06,29,17,14,19.40
2006,06,29,17,15,19.60
2006,06,29,17,16,19.60
2006,06,29,17,17,19.80
2006,06,29,17,18,20.00
2006,06,29,17,19,20.10
2006,06,29,17,20,20.20
2006,06,29,17,21,20.30
2006,06,29,17,22,20.50
2006,06,29,17,23,20.60
2006,06,29,17,24,20.80
2006,06,29,17,25,20.90
2006,06,29,17,26,20.80
2006,06,29,17,27,20.70
2006,06,29,17,28,20.60
2006,06,29,17,29,20.70
2006,06,29,17,30,20.60
2006,06,29,17,31,20.50
2006,06,29,17,32,20.30
2006,06,29,17,33,20.20
2006,06,29,17,34,20.00
2006,06,29,17,35,19.90
2006,06,29,17,36,20.10